Lid_Strength_Index
4 3 3 2 1 1 1 1 0 0 0 -0 -0 -0 0 0 0 -0 -0 1 1 -0 -1 -1 -1 -1 -1 -1 -1 -1 -1 -2 -2 -2 -2 -2 -2 -2 -1 -1 -1 -1 -1
3 4 4 3 3 2 1 1 1 0 0 1 0 0 0 0 0 0 0 0 1 1 -0 -1 -1 -1 -1 -1 -1 -1 -1 -1 -1 -1 -1 -1 -1 -1 -1 -1 -1 -1 -1
4 4 5 4 4 3 3 3 2 1 0 0 1 0 0 0 0 0 0 0 1 1 1 0 -0 -1 -1 -1 -1 -1 -1 -1 -1 -1 -1 -1 -1 -1 -1 -1 -1 -1 -1
5 5 6 6 6 6 6 5 4 3 2 1 1 1 1 0 0 0 0 0 0 0 1 1 0 0 -0 -1 -1 -1 -1 -1 -1 -1 -1 -1 -1 -1 -1 -1 -1 -1 -1
5 7 7 7 7 7 6 6 5 4 3 3 1 1 1 1 1 0 0 0 1 -0 0 1 1 1 0 -0 -1 -1 -1 -1 -1 -1 -1 -1 -1 -1 -1 -1 -1 -1 -1
7 8 8 8 7 7 7 7 6 5 5 4 2 2 1 1 0 1 1 0 0 0 0 0 0 0 1 0 -0 -1 -1 -1 -1 -1 -1 -1 -1 -1 -1 -1 -1 -1 -1
8 9 9 9 8 8 8 7 6 6 6 4 4 2 2 1 1 1 0 1 1 0 0 0 1 0 0 1 0 -1 -1 -1 -1 -1 -1 -1 -1 -1 -1 -1 -1 -1 -1
9 10 10 10 10 10 9 8 7 7 6 5 5 5 6 4 2 1 1 1 1 0 0 1 0 1 1 0 0 0 -1 -1 -1 -1 -1 -1 -1 -1 -1 -1 -1 -1 -1
10 10 10 11 11 11 10 9 8 8 8 6 5 5 6 7 5 3 2 1 1 1 1 1 0 0 0 0 1 0 2 2 0 -1 -1 -1 -1 -1 -1 -1 -1 -1 -1
11 10 11 11 11 11 10 9 8 8 7 8 6 4 4 3 6 7 3 2 1 2 1 1 0 0 -0 -0 1 2 3 3 2 0 -0 -1 -1 -1 -1 -1 -1 -1 -1
11 11 11 11 12 11 11 10 10 8 7 6 6 6 5 4 3 5 6 5 3 2 1 2 1 0 0 0 0 2 5 4 3 1 0 -0 -1 -1 -1 -1 -1 -1 -1
12 11 11 12 12 11 11 10 9 9 8 6 6 5 5 5 4 4 5 5 4 3 2 1 1 0 0 0 0 3 6 6 5 3 1 0 0 -0 -1 -1 -1 -1 -1
12 12 12 12 12 12 12 11 10 10 9 8 6 5 4 4 3 3 4 4 5 3 3 1 1 0 0 0 0 4 6 7 6 4 2 1 1 0 0 -0 -0 -1 -1
12 11 12 12 13 13 13 12 12 12 11 11 10 8 7 4 3 2 3 4 6 5 4 4 6 5 5 5 6 6 3 7 7 6 5 3 3 2 1 1 0 0 -0
12 12 12 13 13 14 14 14 14 14 13 12 12 11 10 9 6 4 4 2 4 7 6 4 6 9 7 7 8 8 9 9 8 7 7 6 5 4 4 3 3 2 1
13 13 13 13 14 14 14 14 14 14 14 14 13 13 12 11 10 8 7 6 5 5 6 5 10 10 8 8 8 9 10 10 10 9 9 8 8 7 7 7 7 6 6
14 14 14 15 14 14 14 15 15 15 16 15 14 14 14 13 12 11 10 9 9 8 5 11 11 11 11 10 10 9 10 10 10 11 11 11 11 11 11 11 10 10 10
14 14 15 15 15 15 15 16 16 16 16 16 16 16 16 14 14 13 12 12 11 10 9 12 13 13 14 11 11 11 11 11 12 10 12 12 12 13 13 13 12 13 14
14 15 15 16 16 16 16 16 17 17 17 17 17 16 16 16 16 15 13 13 12 13 14 14 16 14 13 14 13 13 13 13 12 11 12 12 12 13 13 14 14 13 14
13 16 15 15 16 16 17 17 18 18 18 18 18 17 16 16 16 15 16 14 14 15 15 17 18 17 15 16 15 16 15 15 14 13 14 13 13 13 13 13 13 14 13
11 13 15 15 15 15 15 16 17 18 19 19 19 18 17 15 14 14 16 16 16 17 18 18 19 18 19 18 18 17 16 16 17 16 16 16 15 16 14 14 14 15 14
12 12 14 15 16 14 12 13 15 17 18 19 19 19 18 16 16 15 15 16 16 18 19 20 21 20 20 18 17 17 17 17 17 16 16 17 15 16 16 15 15 15 14
13 14 13 14 15 15 12 12 12 15 17 18 18 18 19 18 17 17 16 16 16 16 18 19 20 20 19 18 17 17 17 17 19 18 17 18 17 17 16 15 15 15 15
12 13 14 14 15 14 13 12 12 13 15 16 17 18 18 18 17 17 17 18 18 17 17 17 18 18 17 17 17 17 16 16 17 18 18 18 18 18 16 15 15 15 15
13 13 13 14 14 14 13 13 13 14 14 15 16 15 16 16 15 16 18 18 18 18 16 16 16 17 17 16 17 18 19 19 19 20 19 18 20 19 17 17 17 16 15
12 12 12 12 13 14 12 13 14 14 16 15 16 16 14 15 14 14 17 17 18 17 17 17 18 17 17 17 17 18 19 20 20 20 18 20 20 19 21 17 18 17 16